SRMSAT

Last updated on Tue Sep 16 2025 00:02:30 GMT+0000 (Coordinated Universal Time)

1 37841U 11058D 25258.38393613 .00000465 00000+0 10876-3 0 9995 2 37841 19.9719 282.6859 0011953 61.1395 74.1661 14.11464609718945
UTC large
Height (km)
Speed (km/s)
/
Latitude / Longitude
Inclination (degrees)
Orbital Period (minutes)
Azimuth
Elevation
Range (km)
Doppler Factor

Next 0 passes for location: London (51.5072 / 0.1276)

Sorry there are no passes over London.